Weather History for KFNB - April, 2013

Change the Weather History Date:

Monday, April 29, 2013

  Actual Average (WUND) Record (WUND)
Temperature  
Mean Temperature 70 °F -  
Max Temperature 84 °F - - (-1)
Min Temperature 57 °F - - (-1)
Cooling Degree Days 6    
Growing Degree Days 20 (Base 50)    
Moisture  
Dew Point 56 °F    
Average Humidity 63    
Maximum Humidity 87    
Minimum Humidity 38    
Precipitation  
Precipitation 0.00 in - - ()
Sea Level Pressure  
Sea Level Pressure 29.65 in    
Wind  
Wind Speed 9 mph (South)    
Max Wind Speed 16 mph    
Max Gust Speed 28 mph    
Visibility 10 miles    
Events      
Averages and records for this station are not official NWS values.
T = Trace of Precipitation, MM = Missing Value Source: NWS Daily Summary

Daily Weather History Graph

Daily Weather History Graph

Search for Another Location

Airport or City:

Trip Planner

Search our weather history database for the weather conditions in past years. The results will help you decide how hot, cold, wet, or windy it might be!

Date:

Astronomy

Apr. 29, 2013 Rise Set
Actual Time 6:24 AM CDT 8:15 PM CDT
Civil Twilight 5:55 AM CDT 8:44 PM CDT
Nautical Twilight 5:19 AM CDT 9:20 PM CDT
Astronomical Twilight 4:41 AM CDT 9:58 PM CDT
Moon No Moon Rise 9:46 AM CDT (4/29)
Length of Visible Light 14h 49m
Length of Day
13h 51m
Waning Gibbous, 80% of the Moon is Illuminated
Apr 29
Waning Gibbous
May 2
Last Quarter
May 9
New
May 17
First Quarter
May 24
Full

Hourly Weather History & Observations

Time (CDT) Temp. Heat Index Dew Point Humidity Pressure Visibility Wind Dir Wind Speed Gust Speed Precip Events Conditions
12:53 AM 57.0 °F - 52.0 °F 83% 29.75 in 10.0 mi SSE 6.9 mph - N/A   Clear
1:53 AM 60.1 °F - 54.0 °F 80% 29.74 in 10.0 mi SSE 8.1 mph - N/A   Clear
2:53 AM 59.0 °F - 54.0 °F 83% 29.73 in 10.0 mi SSE 8.1 mph - N/A   Clear
3:53 AM 57.9 °F - 53.1 °F 84% 29.73 in 10.0 mi SSW 6.9 mph - N/A   Clear
4:53 AM 57.0 °F - 53.1 °F 87% 29.72 in 10.0 mi South 10.4 mph - N/A   Clear
5:53 AM 57.0 °F - 53.1 °F 87% 29.71 in 10.0 mi South 6.9 mph - N/A   Clear
6:53 AM 57.0 °F - 53.1 °F 87% 29.73 in 10.0 mi SSW 4.6 mph - N/A   Clear
7:53 AM 59.0 °F - 54.0 °F 83% 29.74 in 10.0 mi SW 4.6 mph - N/A   Clear
8:53 AM 63.0 °F - 55.0 °F 75% 29.72 in 10.0 mi SSW 8.1 mph - N/A   Clear
9:53 AM 68.0 °F - 55.0 °F 63% 29.73 in 10.0 mi WSW 9.2 mph - N/A   Clear
10:53 AM 70.0 °F - 55.0 °F 59% 29.71 in 10.0 mi WSW 5.8 mph - N/A   Clear
11:53 AM 73.0 °F - 55.0 °F 53% 29.70 in 10.0 mi SSW 6.9 mph - N/A   Clear
12:53 PM 77.0 °F - 55.9 °F 48% 29.67 in 10.0 mi Variable 5.8 mph - N/A   Clear
1:53 PM 81.0 °F 80.8 °F 55.9 °F 42% 29.65 in 10.0 mi WSW 10.4 mph - N/A   Clear
2:53 PM 82.0 °F 82.0 °F 57.9 °F 44% 29.62 in 10.0 mi South 9.2 mph - N/A   Clear
3:53 PM 84.0 °F 83.8 °F 59.0 °F 43% 29.59 in 10.0 mi South 15.0 mph - N/A   Clear
4:53 PM 84.0 °F 83.8 °F 59.0 °F 43% 29.56 in 10.0 mi South 15.0 mph 21.9 mph N/A   Clear
5:53 PM 84.9 °F 83.9 °F 57.0 °F 38% 29.55 in 10.0 mi South 12.7 mph 26.5 mph N/A   Clear
6:53 PM 84.0 °F 83.5 °F 57.9 °F 41% 29.54 in 10.0 mi South 13.8 mph 20.7 mph N/A   Clear
7:53 PM 81.0 °F 81.1 °F 57.9 °F 45% 29.53 in 10.0 mi South 15.0 mph 21.9 mph N/A   Clear
8:53 PM 78.1 °F - 62.1 °F 58% 29.53 in 10.0 mi SSE 16.1 mph 27.6 mph N/A   Clear
9:53 PM 75.9 °F - 61.0 °F 60% 29.55 in 10.0 mi South 11.5 mph 18.4 mph N/A   Clear
10:53 PM 73.9 °F - 57.9 °F 57% 29.55 in 10.0 mi South 12.7 mph 19.6 mph N/A   Clear
11:53 PM 72.0 °F - 57.0 °F 59% 29.55 in 10.0 mi South 10.4 mph - N/A   Clear